Lid_Strength_Index
2 4 3 3 8 7 10 9 7 8 7 5 4 6 6 6 7 9 1 -0 -1 -1 -1 -1 -1 -2 -2 -2 -2 -2 -2 -2 -2 -2 -2 -2 -2 -2 -2 -2 -3 -2 -2 -2 -2 -2 -2 -2 -2
3 4 3 5 8 11 11 9 8 7 6 4 5 5 6 7 4 4 2 -0 -1 -1 -1 -1 -1 -1 -2 -2 -2 -2 -2 -2 -2 -2 -2 -2 -2 -2 -2 -2 -3 -2 -2 -2 -2 -2 -2 -2 -2
4 4 6 7 8 11 11 9 8 6 5 5 6 4 5 6 4 3 0 -0 -1 -1 -1 -1 -1 -1 -2 -2 -2 -2 -2 -2 -3 -2 -2 -2 -2 -2 -2 -2 -3 -2 -2 -2 -2 -2 -2 -2 -2
3 4 5 8 11 9 9 8 7 6 5 4 5 6 4 2 3 1 -0 -1 -0 -1 -1 -1 -1 -1 -2 -2 -2 -2 -3 -2 -2 -2 -2 -2 -2 -2 -2 -2 -2 -2 -2 -2 -2 -2 -2 -2 -2
3 5 8 10 11 10 9 7 6 7 6 6 5 6 5 3 1 0 0 -0 -0 -1 -1 -1 -1 -1 -1 -2 -2 -2 -3 -3 -2 -3 -2 -2 -2 -2 -2 -2 -2 -2 -2 -2 -2 -2 -2 -2 -2
4 5 9 10 11 10 9 7 6 6 6 5 6 6 5 2 2 1 -0 -0 -1 -1 -1 -1 0 -0 -1 -1 -2 -2 -3 -2 -2 -3 -2 -2 -2 -2 -2 -2 -2 -2 -2 -2 -2 -2 -2 -2 -2
6 7 10 10 10 10 10 8 7 6 6 6 4 6 5 3 1 0 -0 -0 -1 -1 -1 -1 -1 -1 1 -0 -1 -2 -2 -2 -2 -3 -2 -2 -2 -2 -2 -2 -2 -2 -2 -2 -2 -2 -2 -2 -2
5 6 10 9 10 10 9 9 8 7 7 4 3 6 6 3 1 0 -0 0 -0 -1 -1 -1 -1 -1 -1 -2 0 -1 -1 -2 -2 -2 -1 -1 -1 -1 -1 -1 -2 -2 -2 -2 -2 -2 -2 -2 -2
5 9 11 10 10 8 8 8 7 8 7 5 4 4 3 2 1 1 1 1 1 0 -0 -1 -1 -1 -1 -1 -0 0 -0 -0 -1 -1 -0 -0 -2 -2 -1 -1 -1 -2 -2 -2 -2 -1 -1 -2 -2
7 10 10 7 6 7 7 7 6 7 7 7 6 3 2 2 2 3 3 3 2 1 0 -1 -1 -1 -1 -1 -1 -2 -1 -2 -2 -2 -2 -2 -2 -2 -1 -0 -0 -1 -1 -2 -2 -1 -1 -1 -2
7 10 7 6 6 6 6 7 6 6 7 6 7 6 3 3 3 3 3 2 2 1 0 -0 -1 -1 -1 -1 -1 -1 -1 -2 -2 -2 -2 -2 -1 -2 -2 -2 -1 -2 0 -2 -1 -1 -1 -1 -2
9 7 6 6 6 6 7 5 6 6 5 5 5 6 6 3 3 3 3 2 2 1 1 -0 -1 -1 -1 -1 -1 -1 -1 -1 -1 -2 -2 -2 -1 -1 -1 -1 -2 -1 -1 -1 -1 -1 -1 -1 -1
8 7 6 5 6 6 6 7 6 6 5 4 6 8 7 5 3 2 2 1 1 1 1 0 -1 -1 -1 -1 -1 -1 -1 -1 -1 -1 -2 -2 -1 -1 -1 -1 -1 -1 -1 -1 -1 -1 -1 -1 -1
7 7 6 6 6 6 7 6 7 6 4 5 6 6 5 5 3 2 2 2 2 1 1 -0 -0 -1 -1 -1 -1 -1 -1 -1 -1 -1 -1 -2 -1 -1 -1 -1 -1 -1 -1 -1 -1 -1 -1 -1 -1
7 9 7 7 7 7 6 8 8 5 5 6 6 6 5 5 4 3 2 2 1 1 0 0 -0 -1 -0 -1 -1 -1 -1 -1 -1 -1 -2 -1 -1 -1 -1 -1 -0 -1 -1 -0 -0 -1 -1 -1 -1
10 10 13 8 7 7 7 11 6 4 5 6 5 6 6 6 5 3 2 2 1 1 1 0 -0 -0 -0 -0 -1 -1 -1 -1 -1 -1 -1 -1 -1 -1 -1 -1 -1 -1 -0 -0 -0 -0 -0 -0 -0
10 13 12 10 7 8 9 10 6 5 5 6 5 5 6 6 5 4 3 1 1 1 1 1 0 0 -0 -0 -1 -1 -1 -1 -1 -1 -1 -1 -1 -1 -1 -1 -1 -1 -1 0 -0 -0 -0 0 0
14 13 11 11 8 9 10 10 7 6 6 6 6 6 6 6 7 5 4 2 1 1 1 0 0 0 -0 -0 -0 -0 0 0 -0 -1 -1 -1 -1 -1 -1 -1 -1 -1 -1 -0 -1 -0 -0 -0 0
9 11 11 9 7 9 10 9 8 6 6 6 6 6 5 5 4 6 5 3 2 1 1 1 1 1 0 1 1 1 1 0 0 -1 -1 -1 -1 -1 -1 -1 -1 -1 -0 -0 -0 -0 0 1 -0
11 12 12 10 9 9 10 10 8 7 7 6 6 6 6 5 5 5 5 4 3 2 1 1 1 1 0 0 0 0 0 0 -0 -1 -1 -1 -1 -1 -1 -1 -0 -1 -0 -0 -0 0 1 1 -0
11 12 12 12 9 9 10 12 9 7 6 6 5 5 5 6 6 5 5 6 3 3 2 1 1 1 0 0 0 0 0 0 1 0 0 -0 -1 -1 -1 -1 -1 -1 -0 0 0 0 1 2 1
14 9 10 11 12 16 9 17 10 8 8 6 6 5 5 5 5 5 5 5 5 2 2 1 1 1 1 0 1 1 2 2 1 1 0 -0 -1 -1 -1 -1 -1 -1 -0 0 0 -0 0 1 2
11 8 10 11 13 14 13 16 12 8 9 7 6 5 4 4 4 4 4 4 4 4 2 1 1 1 1 0 1 1 2 1 1 1 1 0 -0 -1 -1 -1 -1 -0 -0 -0 -0 0 0 0 1
8 10 11 12 14 19 14 15 14 11 9 7 6 5 4 4 4 4 4 4 4 5 3 2 1 1 1 1 1 1 2 2 2 1 1 1 0 0 -0 -1 -0 -1 -0 -0 -0 -0 0 0 0
10 13 19 20 20 19 12 15 13 9 7 7 6 5 5 4 4 5 5 5 5 5 5 3 2 2 1 1 1 1 1 1 2 2 2 1 1 1 1 0 0 0 -0 -0 -0 0 0 0 1
12 12 17 20 20 16 13 17 12 8 6 6 5 5 5 5 5 5 6 5 5 5 6 5 4 2 2 1 1 1 1 1 1 1 1 1 1 1 0 0 0 0 -0 -0 -0 0 0 0 0
12 15 11 16 16 18 15 12 9 8 7 6 6 6 6 7 7 8 8 6 6 5 5 6 5 4 3 2 1 1 1 1 1 1 1 1 0 1 0 0 0 1 1 1 0 1 1 1 1
10 9 16 16 21 20 15 14 13 10 8 6 6 7 7 8 9 9 9 9 8 8 7 7 6 5 3 2 2 1 1 1 1 1 1 1 1 0 1 0 0 0 1 1 1 2 2 2 1
13 14 12 12 14 18 18 14 8 8 7 7 7 8 8 8 8 9 9 10 10 10 9 9 8 7 5 3 2 1 1 1 1 1 1 1 0 0 1 1 1 1 1 1 2 2 2 2 2
9 12 12 16 18 16 16 15 8 7 7 7 8 8 9 7 8 8 8 10 10 11 11 10 9 8 5 4 2 2 1 1 1 1 1 1 1 0 0 0 1 1 1 1 2 2 2 2 2